H1 CPF 2 NER 2024 2 2 9 033 01 glonass138 H2 1805301 9138 43508 2024 2 2 0 0 0 2024 2 5 23 45 0 900 1 1 0 0 0 1 H9 10 0 60342 0.00000 0 -10573115.719 15115121.699 17618861.989 10 0 60342 900.00000 0 -12260183.403 16258801.278 15358683.183 10 0 60342 1800.00000 0 -13614203.112 17355997.049 12800102.012 10 0 60342 2700.00000 0 -14624698.301 18345497.759 9992741.085 10 0 60342 3600.00000 0 -15294361.063 19167204.377 6991098.251 10 0 60342 4500.00000 0 -15638702.858 19764756.308 3853490.219 10 0 60342 5400.00000 0 -15685173.687 20088021.327 640917.875 10 0 60342 6300.00000 0 -15471786.995 20095343.066 -2584124.445 10 0 60342 7200.00000 0 -15045308.722 19755449.792 -5758871.874 10 0 60342 8100.00000 0 -14459087.661 19048942.313 -8821519.489 10 0 60342 9000.00000 0 -13770619.739 17969296.618 -11712435.264 10 0 60342 9900.00000 0 -13038950.294 16523337.464 -14375330.712 10 0 60342 10800.00000 0 -12322025.421 14731161.672 -16758365.405 10 0 60342 11700.00000 0 -11674105.490 12625513.333 -18815162.962 10 0 60342 12600.00000 0 -11143351.236 10250636.482 -20505718.120 10 0 60342 13500.00000 0 -10769685.139 7660652.930 -21797176.933 10 0 60342 14400.00000 0 -10583018.947 4917532.925 -22664474.939 10 0 60342 15300.00000 0 -10601922.269 2088743.438 -23090821.119 10 0 60342 16200.00000 0 -10832788.319 -755327.847 -23068018.756 10 0 60342 17100.00000 0 -11269531.605 -3544065.579 -22596617.529 10 0 60342 18000.00000 0 -11893829.800 -6209324.914 -21685894.573 10 0 60342 18900.00000 0 -12675898.954 -8688023.012 -20353665.489 10 0 60342 19800.00000 0 -13575768.839 -10924516.794 -18625929.572 10 0 60342 20700.00000 0 -14545004.065 -12872669.005 -16536356.599 10 0 60342 21600.00000 0 -15528798.046 -14497517.867 -14125625.591 10 0 60342 22500.00000 0 -16468351.217 -15776482.280 -11440628.624 10 0 60342 23400.00000 0 -17303433.085 -16700054.007 -8533555.471 10 0 60342 24300.00000 0 -17975020.010 -17271949.768 -5460877.023 10 0 60342 25200.00000 0 -18427897.599 -17508718.756 -2282247.403 10 0 60342 26100.00000 0 -18613118.082 -17438823.797 940653.736 10 0 60342 27000.00000 0 -18490209.307 -17101236.348 4145316.179 10 0 60342 27900.00000 0 -18029042.437 -16543605.690 7269608.197 10 0 60342 28800.00000 0 -17211279.867 -15820080.314 10252976.294 10 0 60342 29700.00000 0 -16031342.462 -14988873.780 13037612.659 10 0 60342 30600.00000 0 -14496855.309 -14109677.725 15569568.150 10 0 60342 31500.00000 0 -12628552.900 -13241030.778 17799789.797 10 0 60342 32400.00000 0 -10459647.041 -12437753.637 19685063.483 10 0 60342 33300.00000 0 -8034682.916 -11748557.616 21188844.390 10 0 60342 34200.00000 0 -5407929.823 -11213926.476 22281959.909 10 0 60342 35100.00000 0 -2641372.113 -10864359.937 22943172.154 10 0 60342 36000.00000 0 197617.778 -10719052.186 23159589.719 10 0 60342 36900.00000 0 3038829.211 -10785060.717 22926920.962 10 0 60342 37800.00000 0 5811882.028 -11057000.569 22249563.823 10 0 60342 38700.00000 0 8448904.826 -11517277.333 21140530.009 10 0 60342 39600.00000 0 10887112.972 -12136849.976 19621204.216 10 0 60342 40500.00000 0 13071180.309 -12876492.492 17720942.028 10 0 60342 41400.00000 0 14955306.641 -13688502.458 15476513.025 10 0 60342 42300.00000 0 16504895.229 -14518785.668 12931398.683 10 0 60342 43200.00000 0 17697770.431 -15309229.843 10134957.486 10 0 60342 44100.00000 0 18524884.477 -16000267.854 7141472.547 10 0 60342 45000.00000 0 18990483.572 -16533522.277 4009099.615 10 0 60342 45900.00000 0 19111726.202 -16854419.189 798735.745 10 0 60342 46800.00000 0 18917769.670 -16914659.810 -2427169.220 10 0 60342 47700.00000 0 18448363.504 -16674444.272 -5605834.573 10 0 60342 48600.00000 0 17752009.517 -16104351.923 -8675379.443 10 0 60342 49500.00000 0 16883766.868 -15186797.068 -11576037.227 10 0 60342 50400.00000 0 15902795.757 -13916996.998 -14251328.936 10 0 60342 51300.00000 0 14869744.558 -12303409.936 -16649171.535 10 0 60342 52200.00000 0 13844091.821 -10367623.155 -18722898.840 10 0 60342 53100.00000 0 12881556.364 -8143694.935 -20432174.403 10 0 60342 54000.00000 0 12031685.518 -5676977.256 -21743778.347 10 0 60342 54900.00000 0 11335723.728 -3022468.052 -22632252.813 10 0 60342 55800.00000 0 10824851.499 -242761.687 -23080393.713 10 0 60342 56700.00000 0 10518868.668 2594316.950 -23079579.714 10 0 60342 57600.00000 0 10425376.933 5418296.214 -22629932.667 10 0 60342 58500.00000 0 10539495.295 8158751.919 -21740306.993 10 0 60342 59400.00000 0 10844119.459 10748000.186 -20428108.909 10 0 60342 60300.00000 0 11310713.272 13123677.432 -18718949.545 10 0 60342 61200.00000 0 11900597.899 15231100.883 -16646139.219 10 0 60342 62100.00000 0 12566683.508 17025312.335 -14250033.050 10 0 60342 63000.00000 0 13255569.762 18472721.290 -11577240.957 10 0 60342 63900.00000 0 13909925.937 19552280.339 -8679717.636 10 0 60342 64800.00000 0 14471049.880 20256145.334 -5613750.419 10 0 60342 65700.00000 0 14881497.612 20589794.408 -2438864.821 10 0 60342 66600.00000 0 15087672.502 20571602.550 783330.774 10 0 60342 67500.00000 0 15042264.813 20231891.117 3990338.797 10 0 60342 68400.00000 0 14706438.784 19611493.559 7119981.374 10 0 60342 69300.00000 0 14051675.125 18759898.666 10111601.031 10 0 60342 70200.00000 0 13061191.342 17733050.101 12907230.194 10 0 60342 71100.00000 0 11730879.971 16590895.037 15452707.281 10 0 60342 72000.00000 0 10069724.950 15394784.921 17698718.301 10 0 60342 72900.00000 0 8099678.028 14204837.181 19601744.521 10 0 60342 73800.00000 0 5854999.409 13077368.051 21124898.714 10 0 60342 74700.00000 0 3381088.955 12062503.469 22238634.547 10 0 60342 75600.00000 0 732855.142 11202067.440 22921316.156 10 0 60342 76500.00000 0 -2027312.046 10527835.654 23159637.424 10 0 60342 77400.00000 0 -4831881.844 10060226.984 22948883.107 10 0 60342 78300.00000 0 -7610741.632 9807487.455 22293026.688 10 0 60342 79200.00000 0 -10293869.580 9765400.886 21204662.676 10 0 60342 80100.00000 0 -12814011.490 9917538.708 19704773.866 10 0 60342 81000.00000 0 -15109251.825 10236039.054 17822337.049 10 0 60342 81900.00000 0 -17125372.861 10682883.153 15593773.586 10 0 60342 82800.00000 0 -18817904.120 11211616.148 13062254.236 10 0 60342 83700.00000 0 -20153776.729 11769440.523 10276870.546 10 0 60342 84600.00000 0 -21112513.387 12299594.358 7291687.916 10 0 60342 85500.00000 0 -21686903.760 12743914.061 4164698.106 10 0 60343 0.00000 0 -21883136.589 13045472.970 956691.619 10 0 60343 900.00000 0 -21720382.674 13151183.608 -2269929.712 10 0 60343 1800.00000 0 -21229845.981 13014251.938 -5452371.882 10 0 60343 2700.00000 0 -20453323.311 12596378.881 -8528680.768 10 0 60343 3600.00000 0 -19441333.344 11869613.840 -11438957.729 10 0 60343 4500.00000 0 -18250894.834 10817780.328 -14126535.598 10 0 60343 5400.00000 0 -16943048.541 9437411.815 -16539090.822 10 0 60343 6300.00000 0 -15580228.401 7738156.794 -18629669.186 10 0 60343 7200.00000 0 -14223593.702 5742634.761 -20357604.497 10 0 60343 8100.00000 0 -12930435.507 3485748.160 -21689312.002 10 0 60343 9000.00000 0 -11751766.990 1013478.413 -22598941.118 10 0 60343 9900.00000 0 -10730199.352 -1618784.022 -23068874.961 10 0 60343 10800.00000 0 -9898192.370 -4348306.097 -23090067.481 10 0 60343 11700.00000 0 -9276752.617 -7107389.111 -22662212.213 10 0 60343 12600.00000 0 -8874633.130 -9825957.210 -21793740.019 10 0 60343 13500.00000 0 -8688067.045 -12434249.907 -20501646.538 10 0 60343 14400.00000 0 -8701045.069 -14865506.908 -18811153.244 10 0 60343 15300.00000 0 -8886123.776 -17058533.978 -16755209.212 10 0 60343 16200.00000 0 -9205729.384 -18960043.730 -14373843.672 10 0 60343 17100.00000 0 -9613900.911 -20526674.762 -11713382.237 10 0 60343 18000.00000 0 -10058398.215 -21726606.015 -8825542.285 10 0 60343 18900.00000 0 -10483085.210 -22540700.286 -5766425.304 10 0 60343 19800.00000 0 -10830487.115 -22963130.489 -2595425.908 10 0 60343 20700.00000 0 -11044413.400 -23001463.906 625921.084 10 0 60343 21600.00000 0 -11072535.501 -22676202.335 3835133.046 10 0 60343 22500.00000 0 -10868810.440 -22019798.699 6969988.271 10 0 60343 23400.00000 0 -10395648.080 -21075192.446 9969727.624 10 0 60343 24300.00000 0 -9625730.638 -19893926.011 12776226.090 10 0 60343 25200.00000 0 -8543407.738 -18533921.820 15335111.929 10 0 60343 26100.00000 0 -7145608.019 -17057013.222 17596812.302 10 0 60343 27000.00000 0 -5442228.523 -15526332.611 19517505.875 10 0 60343 27900.00000 0 -3455984.653 -14003665.649 21059964.782 10 0 60343 28800.00000 0 -1221725.852 -12546881.630 22194270.441 10 0 60343 29700.00000 0 1214755.915 -11207546.591 22898390.146 10 0 60343 30600.00000 0 3798376.952 -10028818.131 23158603.827 10 0 60343 31500.00000 0 6466805.020 -9043709.130 22969773.005 10 0 60343 32400.00000 0 9152811.928 -8273792.340 22335446.706 10 0 60343 33300.00000 0 11786839.621 -7728399.682 21267801.857 10 0 60343 34200.00000 0 14299674.759 -7404349.625 19787418.603 10 0 60343 35100.00000 0 16625121.986 -7286214.284 17922893.840 10 0 60343 36000.00000 0 18702565.637 -7347115.358 15710299.246 10 0 60343 36900.00000 0 20479313.699 -7550015.990 13192493.036 10 0 60343 37800.00000 0 21912626.394 -7849454.625 10418297.628 10 0 60343 38700.00000 0 22971344.406 -8193648.167 7441558.156 10 0 60343 39600.00000 0 23637048.095 -8526875.726 4320099.515 10 0 60343 40500.00000 0 23904698.492 -8792041.981 1114601.939 10 0 60343 41400.00000 0 23782732.572 -8933311.091 -2112582.898 10 0 60343 42300.00000 0 23292608.317 -8898698.627 -5298651.614 10 0 60343 43200.00000 0 22467818.492 -8642510.456 -8381580.110 10 0 60343 44100.00000 0 21352414.750 -8127523.712 -11301340.785 10 0 60343 45000.00000 0 19999104.633 -7326815.878 -14001081.100 10 0 60343 45900.00000 0 18467002.260 -6225162.918 -16428239.439 10 0 60343 46800.00000 0 16819128.286 -4819945.822 -18535575.655 10 0 60343 47700.00000 0 15119765.220 -3121525.913 -20282095.516 10 0 60343 48600.00000 0 13431780.156 -1153071.953 -21633850.733 10 0 60343 49500.00000 0 11814028.038 1050154.616 -22564598.940 10 0 60343 50400.00000 0 10318944.793 3442026.975 -23056311.021 10 0 60343 51300.00000 0 8990431.276 5967241.867 -23099516.371 10 0 60343 52200.00000 0 7862116.262 8563399.888 -22693479.980 10 0 60343 53100.00000 0 6956070.477 11163390.507 -21846208.543 10 0 60343 54000.00000 0 6282024.357 13697982.562 -20574286.136 10 0 60343 54900.00000 0 5837120.872 16098512.519 -18902543.241 10 0 60343 55800.00000 0 5606212.186 18299558.830 -16863566.024 10 0 60343 56700.00000 0 5562686.001 20241491.388 -14497055.854 10 0 60343 57600.00000 0 5669785.256 21872790.482 -11849051.769 10 0 60343 58500.00000 0 5882364.157 23152039.249 -8971031.300 10 0 60343 59400.00000 0 6149005.313 24049507.438 -5918907.334 10 0 60343 60300.00000 0 6414407.718 24548261.375 -2751940.649 10 0 60343 61200.00000 0 6621944.075 24644754.862 468410.532 10 0 60343 62100.00000 0 6716279.018 24348877.486 3679681.589 10 0 60343 63000.00000 0 6645937.442 23683459.428 6819609.974 10 0 60343 63900.00000 0 6365714.411 22683254.541 9827337.754 10 0 60343 64800.00000 0 5838824.931 21393445.067 12644585.119 10 0 60343 65700.00000 0 5038702.920 19867731.153 15216772.577 10 0 60343 66600.00000 0 3950373.470 18166085.357 17494070.582 10 0 60343 67500.00000 0 2571340.339 16352265.964 19432357.059 10 0 60343 68400.00000 0 911950.742 14491192.647 20994065.072 10 0 60343 69300.00000 0 -1004778.796 12646293.410 22148905.057 10 0 60343 70200.00000 0 -3143869.579 10876932.691 22874448.397 10 0 60343 71100.00000 0 -5459592.969 9236026.945 23156561.639 10 0 60343 72000.00000 0 -7897138.990 7767946.215 22989683.232 10 0 60343 72900.00000 0 -10394673.784 6506788.347 22376937.435 10 0 60343 73800.00000 0 -12885702.256 5475097.188 21330082.800 10 0 60343 74700.00000 0 -15301639.376 4683077.867 19869295.507 10 0 60343 75600.00000 0 -17574484.666 4128341.744 18022790.732 10 0 60343 76500.00000 0 -19639489.659 3796191.762 15826288.156 10 0 60343 77400.00000 0 -21437707.802 3660436.378 13322330.738 10 0 60343 78300.00000 0 -22918320.611 3684698.146 10559468.731 10 0 60343 79200.00000 0 -24040642.665 3824162.041 7591323.765 10 0 60343 80100.00000 0 -24775720.907 4027689.834 4475550.542 10 0 60343 81000.00000 0 -25107460.440 4240210.993 1272715.992 10 0 60343 81900.00000 0 -25033228.681 4405288.436 -1954882.190 10 0 60343 82800.00000 0 -24563911.640 4467749.653 -5144434.063 10 0 60343 83700.00000 0 -23723419.394 4376270.528 -8233848.482 10 0 60343 84600.00000 0 -22547661.174 4085800.946 -11162971.616 10 0 60343 85500.00000 0 -21083033.270 3559727.856 -13874768.033 10 0 60344 0.00000 0 -19384483.843 2771682.627 -16316440.046 10 0 60344 900.00000 0 -17513235.689 1706914.250 -18440463.852 10 0 60344 1800.00000 0 -15534265.733 363170.007 -20205518.374 10 0 60344 2700.00000 0 -13513644.818 -1248956.109 -21577292.726 10 0 60344 3600.00000 0 -11515852.260 -3106221.968 -22529153.204 10 0 60344 4500.00000 0 -9601177.253 -5173475.616 -23042658.383 10 0 60344 5400.00000 0 -7823316.156 -7404902.882 -23107912.536 10 0 60344 6300.00000 0 -6227265.854 -9745732.411 -22723751.086 10 0 60344 7200.00000 0 -4847600.624 -12134327.057 -21897755.125 10 0 60344 8100.00000 0 -3707203.394 -14504574.450 -20646095.397 10 0 60344 9000.00000 0 -2816503.039 -16788477.127 -18993209.324 10 0 60344 9900.00000 0 -2173247.924 -18918834.338 -16971317.894 10 0 60344 10800.00000 0 -1762823.304 -20831903.895 -14619792.187 10 0 60344 11700.00000 0 -1559097.373 -22469933.393 -11984382.168 10 0 60344 12600.00000 0 -1525758.623 -23783455.585 -9116323.010 10 0 60344 13500.00000 0 -1618086.593 -24733252.702 -6071336.530 10 0 60344 14400.00000 0 -1785080.043 -25291908.322 -2908547.287 10 0 60344 15300.00000 0 -1971851.745 -25444882.759 310665.386 10 0 60344 16200.00000 0 -2122188.020 -25191067.847 3523857.062 10 0 60344 17100.00000 0 -2181164.501 -24542798.799 6668726.450 10 0 60344 18000.00000 0 -2097707.391 -23525323.468 9684318.830 10 0 60344 18900.00000 0 -1826992.055 -22175751.887 12512201.539 10 0 60344 19800.00000 0 -1332577.736 -20541530.523 15097589.171 10 0 60344 20700.00000 0 -588188.410 -18678505.234 17390397.184 10 0 60344 21600.00000 0 420935.338 -16648653.770 19346204.299 10 0 60344 22500.00000 0 1697170.647 -14517582.038 20927105.829 10 0 60344 23400.00000 0 3230169.945 -12351887.924 22102442.285 10 0 60344 24300.00000 0 4997057.125 -10216501.584 22849389.905 10 0 60344 25200.00000 0 6963155.569 -8172111.929 23153402.301 10 0 60344 26100.00000 0 9083219.235 -6272785.369 23008494.983 10 0 60344 27000.00000 0 11303117.358 -4563874.889 22417367.263 10 0 60344 27900.00000 0 13561904.482 -3080305.606 21391358.834 10 0 60344 28800.00000 0 15794191.409 -1845307.585 19950241.134 10 0 60344 29700.00000 0 17932719.920 -869648.285 18121846.550 10 0 60344 30600.00000 0 19911035.217 -151396.451 15941541.422 10 0 60344 31500.00000 0 21666145.422 323772.713 13451551.803 10 0 60344 32400.00000 0 23141057.381 581743.855 10700153.824 10 0 60344 33300.00000 0 24287082.602 658634.268 7740743.355 10 0 60344 34200.00000 0 25065816.145 599029.081 4630802.342 10 0 60344 35100.00000 0 25450704.606 453853.540 1430781.592 10 0 60344 36000.00000 0 25428136.273 277972.773 -1797078.184 10 0 60344 36900.00000 0 24998006.533 127621.390 -4989963.591 10 0 60344 37800.00000 0 24173733.756 57772.833 -8085719.522 10 0 60344 38700.00000 0 22981724.271 119561.257 -11024068.868 10 0 60344 39600.00000 0 21460308.491 357866.669 -13747796.033 10 0 60344 40500.00000 0 19658192.874 809167.155 -16203870.092 10 0 60344 41400.00000 0 17632493.022 1499750.635 -18344484.804 10 0 60344 42300.00000 0 15446430.964 2444363.149 -20127994.466 10 0 60344 43200.00000 0 13166793.855 3645351.992 -21519727.020 10 0 60344 44100.00000 0 10861261.096 5092340.801 -22492658.523 10 0 60344 45000.00000 0 8595712.247 6762451.069 -23027936.010 10 0 60344 45900.00000 0 6431628.429 8621061.301 -23115239.056 10 0 60344 46800.00000 0 4423695.602 10623072.366 -22752973.569 10 0 60344 47700.00000 0 2617709.264 12714626.188 -21948294.709 10 0 60344 48600.00000 0 1048867.020 14835206.016 -20716959.140 10 0 60344 49500.00000 0 -259481.013 16920030.493 -19083010.084 10 0 60344 50400.00000 0 -1296573.456 18902641.514 -17078301.799 10 0 60344 51300.00000 0 -2064441.464 20717577.843 -14741873.164 10 0 60344 52200.00000 0 -2577568.573 22303022.914 -12119182.818 10 0 60344 53100.00000 0 -2862022.882 23603316.387 -9261221.032 10 0 60344 54000.00000 0 -2954099.945 24571224.777 -6223515.767 10 0 60344 54900.00000 0 -2898535.147 25169876.632 -3065052.402 10 0 60344 55800.00000 0 -2746362.301 25374281.800 152871.685 10 0 60344 56700.00000 0 -2552509.832 25172371.792 3367835.348 10 0 60344 57600.00000 0 -2373236.753 24565518.318 6517501.600 10 0 60344 58500.00000 0 -2263517.100 23568508.878 9540821.856 10 0 60344 59400.00000 0 -2274483.420 22208980.922 12379213.339 10 0 60344 60300.00000 0 -2451037.191 20526338.570 14977687.243 10 0 60344 61200.00000 0 -2829726.850 18570197.286 17285906.299 10 0 60344 62100.00000 0 -3436982.792 16398421.277 19259152.017 10 0 60344 63000.00000 0 -4287783.694 14074834.998 20859183.676 10 0 60344 63900.00000 0 -5384810.581 11666703.443 22054973.279 10 0 60344 64800.00000 0 -6718124.798 9242085.110 22823303.013 10 0 60344 65700.00000 0 -8265384.434 6867166.609 23149214.294 10 0 60344 66600.00000 0 -9992591.522 4603688.540 23026300.019 10 0 60344 67500.00000 0 -11855340.431 2506568.422 22456834.442 10 0 60344 68400.00000 0 -13800517.145 621818.403 21451737.786 10 0 60344 69300.00000 0 -15768380.306 -1015156.515 20030375.617 10 0 60344 70200.00000 0 -17694938.874 -2380809.558 18220195.875 10 0 60344 71100.00000 0 -19514528.542 -3464200.868 16056209.395 10 0 60344 72000.00000 0 -21162480.256 -4267212.728 13580322.695 10 0 60344 72900.00000 0 -22577769.757 -4804222.443 10840534.786 10 0 60344 73800.00000 0 -23705537.244 -5101246.633 7890012.485 10 0 60344 74700.00000 0 -24499371.003 -5194592.988 4786061.515 10 0 60344 75600.00000 0 -24923258.279 -5129076.499 1589013.019 10 0 60344 76500.00000 0 -24953120.222 -4955875.869 -1638952.808 10 0 60344 77400.00000 0 -24577865.052 -4730121.408 -4835022.562 10 0 60344 78300.00000 0 -23799913.816 -4508317.428 -7936980.481 10 0 60344 79200.00000 0 -22635175.482 -4345709.501 -10884429.293 10 0 60344 80100.00000 0 -21112471.575 -4293709.478 -13619976.107 10 0 60344 81000.00000 0 -19272434.022 -4397488.788 -16090359.128 10 0 60344 81900.00000 0 -17165922.368 -4693843.373 -18247492.306 10 0 60344 82800.00000 0 -14852026.924 -5209421.871 -20049406.796 10 0 60344 83700.00000 0 -12395741.920 -5959393.125 -21461070.544 10 0 60344 84600.00000 0 -9865406.495 -6946610.152 -22455069.939 10 0 60344 85500.00000 0 -7330020.933 -8161306.512 -23012140.418 10 0 60345 0.00000 0 -4856550.674 -9581338.192 -23121536.201 10 0 60345 900.00000 0 -2507329.193 -11172961.906 -22781232.467 10 0 60345 1800.00000 0 -337670.981 -12892115.300 -21997956.687 10 0 60345 2700.00000 0 1606211.090 -14686147.939 -20787049.316 10 0 60345 3600.00000 0 3288895.029 -16495928.623 -19172156.916 10 0 60345 4500.00000 0 4686978.012 -18258241.409 -17184764.326 10 0 60345 5400.00000 0 5789793.985 -19908369.878 -14863575.362 10 0 60345 6300.00000 0 6599592.614 -21382761.409 -12253754.383 10 0 60345 7200.00000 0 7131174.161 -22621659.948 -9406043.773 10 0 60345 8100.00000 0 7410997.670 -23571597.141 -6375774.681 10 0 60345 9000.00000 0 7475801.842 -24187637.700 -3221790.429 10 0 60345 9900.00000 0 7370798.280 -24435285.157 -5303.689 10 0 60345 10800.00000 0 7147514.595 -24291968.560 3211290.258 10 0 60345 11700.00000 0 6861379.308 -23748048.129 6365621.119 10 0 60345 12600.00000 0 6569151.112 -22807298.168 9396548.618 10 0 60345 13500.00000 0 6326301.276 -21486847.258 12245341.801 10 0 60345 14400.00000 0 6184459.707 -19816578.428 14856810.142 10 0 60345 15300.00000 0 6189032.234 -17838014.327 17180365.054 10 0 60345 16200.00000 0 6377089.317 -15602733.688 19170991.947 10 0 60345 17100.00000 0 6775614.895 -13170384.548 20790114.877 10 0 60345 18000.00000 0 7400189.044 -10606376.194 22006337.819 10 0 60345 18900.00000 0 8254160.006 -7979344.807 22796049.074 10 0 60345 19800.00000 0 9328340.954 -5358496.874 23143877.708 10 0 60345 20700.00000 0 10601245.167 -2810939.432 23042993.572 10 0 60345 21600.00000 0 12039851.028 -399106.627 22495245.153 10 0 60345 22500.00000 0 13600866.441 1821611.794 21511132.259 10 0 60345 23400.00000 0 15232441.417 3804942.604 20109613.433 10 0 60345 24300.00000 0 16876258.873 5515416.500 18317750.822 10 0 60345 25200.00000 0 18469917.702 6929601.164 16170198.213 10 0 60345 26100.00000 0 19949509.460 8036828.866 13708540.872 10 0 60345 27000.00000 0 21252281.480 8839388.417 10980498.758 10 0 60345 27900.00000 0 22319274.941 9352173.482 8039007.501 10 0 60345 28800.00000 0 23097826.783 9601802.093 4941194.262 10 0 60345 29700.00000 0 23543829.582 9625244.533 1747267.994 10 0 60345 30600.00000 0 23623653.111 9468017.772 -1480654.290 10 0 60345 31500.00000 0 23315645.303 9182023.217 -4679761.911 10 0 60345 32400.00000 0 22611147.887 8823120.023 -7787781.166 10 0 60345 33300.00000 0 21514982.500 8448537.693 -10744197.230 10 0 60345 34200.00000 0 20045385.553 8114238.750 -13491442.340 10 0 60345 35100.00000 0 18233393.683 7872344.501 -15976026.004 10 0 60345 36000.00000 0 16121704.959 7768734.193 -18149584.246 10 0 60345 36900.00000 0 13763063.454 7840920.392 -19969826.694 10 0 60345 37800.00000 0 11218234.854 8116291.453 -21401362.639 10 0 60345 38700.00000 0 8553658.052 8610796.136 -22416389.873 10 0 60345 39600.00000 0 5838871.149 9328126.429 -22995233.052 10 0 60345 40500.00000 0 3143819.498 10259433.328 -23126721.535 10 0 60345 41400.00000 0 536158.022 11383587.636 -22808399.937 10 0 60345 42300.00000 0 -1921340.010 12667974.760 -22046567.916 10 0 60345 43200.00000 0 -4173160.444 14069789.928 -20856149.119 10 0 60345 44100.00000 0 -6173113.886 15537779.202 -19260392.422 10 0 60345 45000.00000 0 -7886004.760 17014352.981 -17290411.787 10 0 60345 45900.00000 0 -9288835.808 18437983.073 -14984574.114 10 0 60345 46800.00000 0 -10371499.626 19745782.589 -12387747.289 10 0 60345 47700.00000 0 -11136930.320 20876160.290 -9550423.337 10 0 60345 48600.00000 0 -11600711.026 21771437.957 -6527733.922 10 0 60345 49500.00000 0 -11790155.743 22380320.963 -3378377.500 10 0 60345 50400.00000 0 -11742905.875 22660118.451 -163479.165 10 0 60345 51300.00000 0 -11505102.112 22578620.085 3054594.557 10 0 60345 52200.00000 0 -11129209.876 22115550.821 6213442.912 10 0 60345 53100.00000 0 -10671590.852 21263542.840 9251836.692 10 0 60345 54000.00000 0 -10189923.524 20028584.041 12110899.400 10 0 60345 54900.00000 0 -9740581.627 18429924.296 14735241.271 10 0 60345 55800.00000 0 -9376080.941 16499443.252 17074024.677 10 0 60345 56700.00000 0 -9142701.675 14280505.660 19081941.011 10 0 60345 57600.00000 0 -9078386.187 11826351.355 20720080.923 10 0 60345 58500.00000 0 -9211000.136 9198086.032 21956681.931 10 0 60345 59400.00000 0 -9557030.000 6462355.271 22767739.709 10 0 60345 60300.00000 0 -10120771.764 3688797.092 23137471.911 10 0 60345 61200.00000 0 -10894045.273 947377.392 23058625.896 10 0 60345 62100.00000 0 -11856447.053 -1694282.659 22532624.523 10 0 60345 63000.00000 0 -12976132.134 -4173477.771 21569546.883 10 0 60345 63900.00000 0 -14211093.502 -6434782.702 20187943.700 10 0 60345 64800.00000 0 -15510887.055 -8432112.260 18414490.043 10 0 60345 65700.00000 0 -16818731.206 -10130392.164 16283480.885 10 0 60345 66600.00000 0 -18073894.302 -11506771.603 13836178.014 10 0 60345 67500.00000 0 -19214270.527 -12551327.100 11120019.716 10 0 60345 68400.00000 0 -20179036.524 -13267228.322 8187707.484 10 0 60345 69300.00000 0 -20911276.887 -13670358.837 5096186.717 10 0 60345 70200.00000 0 -21360467.427 -13788407.815 1905540.807 10 0 60345 71100.00000 0 -21484710.542 -13659471.065 -1322179.876 10 0 60345 72000.00000 0 -21252627.063 -13330220.768 -4524170.872 10 0 60345 72900.00000 0 -20644823.221 -12853721.837 -7638103.998 10 0 60345 73800.00000 0 -19654869.231 -12286988.087 -10603350.254 10 0 60345 74700.00000 0 -18289746.739 -11688382.684 -13362170.232 10 0 60345 75600.00000 0 -16569744.973 -11114974.072 -15860847.732 10 0 60345 76500.00000 0 -14527808.959 -10619960.483 -18050743.528 10 0 60345 77400.00000 0 -12208366.522 -10250273.134 -19889247.959 10 0 60345 78300.00000 0 -9665682.923 -10044460.354 -21340613.368 10 0 60345 79200.00000 0 -6961811.881 -10030942.755 -22376650.052 10 0 60345 80100.00000 0 -4164228.716 -10226713.510 -22977272.325 10 0 60345 81000.00000 0 -1343244.468 -10636538.665 -23130884.484 10 0 60345 81900.00000 0 1430691.217 -11252691.095 -22834599.746 10 0 60345 82800.00000 0 4089686.242 -12055228.987 -22094288.524 10 0 60345 83700.00000 0 6570989.456 -13012806.697 -20924455.782 10 0 60345 84600.00000 0 8819354.512 -14083983.413 -19347950.424 10 0 60345 85500.00000 0 10789086.814 -15218974.045 -17395512.926 99